Home   Weather   Redlands   Past weeks

Flag for USA Past Weather in Redlands, California, USA — Yesterday and Last 2 Weeks

Now
72 °F

Overcast.


Feels Like: 77 °F
Forecast: 51 / 84 °F
Wind: 10 mph from Southwest

Location: Norton Air Force Base / San Bern

Current Time: Apr 25, 2017 at 7:17:37 pm

Latest Report: Apr 25, 2017 at 5:50 pm


Visibility: 6 mi

Pressure: 29.87 "Hg

Humidity: 33%

Dew Point: 41 °F

Location of RedlandsLocation

Past Weather in Redlands — Graph

°F

Redlands Temperature Yesterday

Maximum temperature yesterday: 72 °F (at 2:50 pm)
Minimum temperature yesterday: 58 °F (at 2:18 am)
Average temperature yesterday: 63 °F

High & Low Weather Summary for the Past Weeks

 TemperatureHumidityPressure
High95 °F (Apr 22, 1:50 pm)86% (Apr 19, 3:57 am)30.13 "Hg (Apr 19, 3:57 am)
Low46 °F (Apr 14, 5:18 am)9% (Apr 21, 4:49 pm)29.80 "Hg (Apr 23, 3:50 pm)
Average65 °F50%29.99 "Hg
* Reported Apr 10 7:50 pm — Apr 25 5:50 pm, Redlands, Weather by CustomWeather, © 2017

Note: Actual official high and low records may vary slightly from our data, if they occured in-between our weather recording intervals... More about our weather records

Advertising

Redlands Weather History for the Previous 24 Hours

Scroll right to see more
 ConditionsComfort  
Time TempWeatherWind HumidityBarometerVisibility
5:50 pm
Tue, Apr 25
72 °FOvercast.10 mph33%29.87 "Hg6 mi
4:50 pm75 °FOvercast.17 mph29%29.87 "Hg5 mi
3:50 pm73 °FOvercast.9 mph31%29.87 "Hg5 mi
2:50 pm75 °FPartly sunny.6 mph29%29.88 "Hg5 mi
1:50 pm72 °FOvercast.7 mph36%29.88 "Hg4 mi
11:50 am70 °FMore clouds than sun.3 mph40%29.92 "Hg4 mi
10:50 am66 °FMore clouds than sun.3 mph49%29.92 "Hg4 mi
9:50 am66 °FHaze.6 mph52%29.91 "Hg4 mi
8:45 am61 °FBroken clouds.6 mph63%29.90 "Hg4 mi
7:00 am57 °FFog.No wind77%29.87 "Hg4 mi
5:38 am58 °FOvercast.No wind74%29.85 "Hg10 mi
5:18 am58 °FMostly cloudy.No wind74%29.85 "Hg10 mi
4:57 am58 °FMostly cloudy.No wind75%29.86 "Hg10 mi
4:38 am57 °FOvercast.No wind76%29.86 "Hg10 mi
4:18 am58 °FOvercast.No wind74%29.85 "Hg10 mi
3:57 am57 °FOvercast.No wind75%29.85 "Hg10 mi
3:18 am57 °FMostly cloudy.No wind76%29.86 "Hg10 mi
2:57 am56 °FPassing clouds.3 mph77%29.86 "Hg10 mi
2:18 am56 °FPassing clouds.5 mph75%29.87 "Hg10 mi
1:57 am56 °FPassing clouds.3 mph74%29.87 "Hg10 mi
1:18 am57 °FPassing clouds.5 mph73%29.87 "Hg10 mi
12:57 am58 °FOvercast.3 mph71%29.88 "Hg10 mi
12:38 am58 °FPassing clouds.5 mph68%29.86 "Hg10 mi
12:18 am58 °FClear.6 mph67%29.87 "Hg10 mi
11:57 pm
Mon, Apr 24
59 °FPassing clouds.5 mph65%29.87 "Hg10 mi
11:18 pm60 °FOvercast.7 mph62%29.88 "Hg10 mi
10:57 pm60 °FOvercast.6 mph64%29.87 "Hg10 mi
10:18 pm62 °FOvercast.7 mph64%29.88 "Hg10 mi
9:57 pm62 °FOvercast.6 mph65%29.88 "Hg10 mi
9:38 pm63 °FOvercast.7 mph66%29.87 "Hg10 mi
8:50 pm63 °FOvercast.10 mph68%29.87 "Hg4 mi
Weather by CustomWeather, © 2017

See weather overviewHow to use our weather pages